Location: Bushey
(51.6333°N, 0.3667°W)
Time: 21:37:44
(UTC+00:00)

Resurs 01 Rocket - Pass Details

Date: 03 March 2021
Orbit: 635 x 643 km, 98.0° (Epoch: 15 April)

Event Time Altitude Azimuth Distance (km) Brightness Sun altitude
Exits shadow 19:12:42 20° 72° (ENE) 1,475 3.0 -14.3°
Maximum altitude 19:13:20 21° 60° (ENE) 1,449 3.0 -14.4°
Drops below altitude 10° 19:16:37 10° 12° (NNE) 2,037 4.2 -14.9°
Sets 19:19:15 0° 356° (N) 2,952 5.2 -15.3°
